Wind_Speed
43 43 41 41 44 45 45 44 45 46 46 44 43 42 43 44 45 46 46 47 48 49 49 49 48 48 48 48 48 49 50 51 51 51 48 44 42 40 38 36 35 36 35
40 39 39 39 39 40 40 40 40 41 42 42 42 42 43 44 46 47 47 48 50 51 52 49 48 49 48 48 48 50 51 51 51 50 46 42 41 41 38 37 35 35 35
37 38 39 39 38 39 39 40 40 41 42 43 43 44 45 46 47 49 50 50 52 53 52 50 50 50 50 50 50 50 51 50 48 47 44 43 42 41 39 39 37 35 35
35 36 38 39 41 41 42 43 44 45 46 47 48 49 49 50 50 51 52 53 54 54 53 53 53 53 53 52 51 50 50 48 46 45 44 42 41 40 39 38 38 35 35
36 37 37 38 39 40 41 43 44 45 47 48 49 50 51 51 51 52 53 54 55 55 56 55 55 54 53 52 51 49 48 46 43 41 42 42 41 40 39 36 36 35 34
38 37 36 36 36 37 37 38 39 40 41 43 45 46 47 49 50 51 52 53 54 54 55 55 54 54 52 51 50 48 45 43 40 39 39 40 41 40 39 35 34 34 33
38 36 34 33 34 34 35 35 35 36 37 39 41 43 45 47 49 51 53 54 55 55 55 55 55 54 52 50 48 46 43 41 38 36 37 39 39 38 36 33 32 32 31
39 39 37 36 36 36 37 37 37 37 38 40 42 44 46 49 51 53 55 56 57 57 56 56 55 54 52 49 47 44 40 37 36 35 35 36 36 34 32 32 32 31 30
42 42 42 41 41 41 41 41 41 41 42 43 44 46 48 50 52 54 55 55 56 57 56 55 53 51 49 47 45 41 37 35 34 34 34 35 33 31 31 30 30 30 29
43 43 44 44 44 44 44 44 44 44 44 45 46 47 48 50 51 52 53 54 55 55 54 53 50 46 44 43 41 38 36 34 33 33 33 32 29 28 28 29 29 28 28
42 44 44 44 45 44 45 45 45 45 45 45 46 46 47 47 47 48 48 49 50 50 49 45 42 41 40 39 38 37 35 33 32 32 31 30 28 27 27 28 28 28 28
42 43 43 43 43 43 43 43 43 43 43 43 43 43 42 42 42 42 42 41 40 39 39 37 36 35 35 34 33 32 31 32 31 31 30 28 26 26 26 27 28 29 30
41 42 41 41 41 40 40 40 39 39 39 39 39 38 37 36 35 34 32 29 28 28 28 28 29 29 30 31 31 29 29 29 30 29 27 25 25 25 25 26 27 29 30
40 41 40 39 39 38 38 37 36 35 35 35 34 32 32 31 29 28 25 22 21 20 21 22 22 23 25 27 27 27 27 28 27 25 23 22 22 24 25 26 27 28 30
41 41 41 40 38 37 36 35 34 33 32 31 30 29 28 26 24 22 19 18 15 13 13 16 18 21 23 23 24 24 24 23 21 21 20 20 21 22 23 25 27 28 29
41 41 41 40 39 37 36 34 32 31 30 29 27 26 25 22 20 17 14 12 10 8 5 6 10 13 15 16 17 18 18 18 18 18 18 20 21 22 23 24 25 27 28
40 40 40 40 39 38 36 34 32 30 29 28 25 23 22 19 17 15 12 10 8 6 4 4 6 8 10 11 13 14 15 16 17 17 18 19 20 21 22 22 24 25 26
42 41 41 40 40 39 37 34 31 29 28 27 24 21 19 17 16 14 11 10 8 7 6 6 7 8 9 10 11 12 13 14 15 16 16 17 17 17 18 19 20 22 23
44 43 42 41 40 38 37 34 31 29 28 26 23 20 18 17 15 13 12 11 10 9 8 8 8 9 9 10 10 10 10 11 11 11 12 13 13 14 15 16 18 19 21
45 44 43 41 39 38 36 35 32 29 28 26 23 19 17 16 15 13 12 11 11 11 10 9 9 8 7 7 7 8 8 8 7 8 9 10 11 12 14 15 17 20 22
46 45 44 42 39 37 36 34 32 29 27 25 22 19 17 15 15 13 12 11 11 10 10 9 7 6 5 5 5 5 4 5 6 7 8 9 10 12 14 16 18 20 22
48 46 44 42 39 37 36 34 32 29 27 25 23 20 18 16 14 12 11 11 10 9 8 7 5 4 4 4 4 4 4 5 6 7 8 10 12 14 15 16 18 20 22
48 46 44 41 40 37 35 34 32 30 28 27 24 21 19 17 15 13 12 11 10 9 8 6 5 4 4 4 4 5 6 6 8 9 10 11 12 13 14 16 18 20 22
50 47 45 42 41 39 36 35 32 31 30 29 27 24 21 18 17 15 13 12 10 9 8 7 6 6 6 6 6 7 8 9 10 11 11 12 12 13 14 16 18 20 23
54 50 49 46 43 42 39 35 33 31 32 32 30 27 24 21 19 17 15 13 11 10 9 8 8 8 8 9 9 9 10 11 12 12 12 12 12 12 13 15 17 19 22
58 53 50 47 44 43 40 36 34 33 33 34 33 30 27 24 22 20 17 15 14 13 12 11 11 11 12 12 12 13 13 13 13 13 13 12 11 11 12 14 16 18 20
Wind_Direction
279 282 280 279 279 279 279 279 278 278 278 279 279 279 279 279 280 280 281 283 285 285 285 284 285 287 289 289 290 293 295 294 289 284 280 274 271 271 272 275 277 278 280
284 283 283 285 281 281 281 280 278 278 277 277 277 277 277 277 279 280 280 281 282 282 283 282 283 285 287 289 291 294 294 294 291 285 278 271 269 269 271 274 273 275 278
287 287 286 285 283 283 282 282 281 280 279 279 278 278 278 278 279 280 280 280 281 281 281 281 283 286 287 289 291 293 293 293 289 283 275 270 267 266 269 272 273 274 276
295 292 288 285 284 282 282 281 281 281 281 280 280 280 280 280 280 279 280 281 282 283 284 285 286 287 288 288 289 291 292 290 286 279 272 267 264 263 265 269 272 274 275
297 294 290 287 285 283 281 280 279 279 280 280 280 280 280 281 280 280 280 280 281 281 282 283 284 284 285 286 287 288 289 288 283 274 267 262 261 262 263 264 269 273 275
297 296 293 289 286 284 283 282 281 280 280 280 281 281 282 282 282 282 281 281 281 280 281 281 281 282 282 283 285 285 285 285 281 271 263 259 259 259 259 262 265 270 275
299 298 296 292 289 286 284 283 283 282 282 282 282 283 283 283 283 283 283 282 281 280 279 278 278 279 279 280 282 282 281 280 276 268 262 258 257 255 257 261 265 269 272
296 295 294 291 289 287 285 283 283 283 283 283 283 283 284 284 284 284 284 283 282 281 279 277 276 276 276 276 277 278 277 275 270 263 258 255 253 253 256 262 267 268 269
297 296 294 291 288 286 284 283 282 281 282 283 284 285 285 286 286 286 285 284 283 282 280 277 275 273 271 271 271 271 269 268 265 260 256 254 250 252 257 262 265 266 268
303 301 298 296 291 286 283 281 280 280 281 282 284 286 287 287 288 287 286 286 284 281 278 275 272 268 266 264 263 263 261 262 261 260 258 252 250 253 258 261 262 264 265
307 305 303 300 297 292 286 282 279 279 280 282 285 287 289 290 290 290 288 287 285 282 277 270 265 264 260 256 255 257 257 259 258 259 256 253 253 254 256 259 260 262 264
309 308 307 305 302 297 291 286 282 280 281 283 286 289 292 293 294 294 292 290 287 281 274 265 262 259 254 250 249 251 253 255 254 254 253 252 254 255 257 259 261 263 266
308 309 309 309 306 302 296 290 286 283 284 286 289 292 295 297 297 297 296 296 292 282 272 261 257 253 248 245 246 245 247 248 251 251 252 253 256 258 260 263 264 267 269
308 309 311 312 309 305 301 295 290 287 288 290 292 294 298 300 300 301 300 303 301 288 271 260 253 248 246 241 239 239 241 245 247 249 252 256 259 261 263 266 269 272 273
309 310 311 312 311 307 303 298 293 291 292 293 293 295 299 300 302 306 308 313 312 306 281 259 248 242 234 233 234 236 240 242 247 250 253 258 263 267 269 272 274 276 277
309 309 310 311 312 309 305 300 295 292 293 293 293 295 298 300 302 309 315 322 326 324 306 253 230 228 229 232 235 238 242 247 252 254 257 261 264 267 270 273 276 278 281
306 307 309 310 310 310 307 301 294 290 292 291 291 292 294 295 297 302 308 313 317 311 297 263 241 232 232 234 238 242 247 250 253 256 259 262 265 269 273 277 280 283 286
305 306 308 309 309 308 306 303 294 286 288 289 288 288 288 288 290 294 296 300 301 295 286 276 262 256 252 247 248 251 254 257 258 260 263 267 271 275 280 285 288 292 294
303 303 303 304 305 305 304 301 296 284 282 284 283 282 281 279 281 283 285 284 285 284 279 275 273 268 264 260 257 255 257 261 262 264 269 274 279 285 290 293 296 298 300
298 298 298 299 300 301 300 300 294 283 277 278 277 275 274 273 273 274 277 278 278 278 273 272 273 268 262 260 258 258 262 266 269 275 281 285 290 295 299 301 303 304 304
294 294 294 294 295 295 295 296 292 281 273 271 269 266 265 267 267 267 269 271 272 272 269 270 268 257 254 253 251 254 262 275 283 290 293 297 302 304 305 306 307 307 307
290 289 289 288 288 288 288 288 288 277 268 263 262 260 258 259 260 258 260 261 259 259 262 262 263 259 257 260 261 270 281 288 295 297 299 303 305 306 307 308 309 310 310
286 284 283 282 281 280 281 282 282 273 262 256 253 253 253 255 254 253 253 250 249 250 249 254 258 255 257 262 269 282 289 294 297 297 299 302 305 307 309 313 314 316 318
281 279 276 277 277 275 272 272 273 268 257 249 246 247 247 249 251 250 248 245 243 242 244 250 251 250 254 260 268 276 283 290 293 296 299 302 304 307 312 318 322 325 327
277 276 273 271 270 268 263 264 266 265 252 244 241 242 243 244 246 245 244 243 241 242 246 250 252 255 257 261 266 272 279 285 288 290 293 297 301 307 315 323 328 332 334
276 273 269 267 264 262 260 257 258 259 249 240 238 238 239 240 241 242 241 241 241 242 247 250 254 259 262 264 266 271 276 279 281 283 285 288 293 303 316 326 333 337 340
Height
5875 5875 5873 5871 5872 5872 5872 5872 5871 5869 5867 5866 5865 5865 5864 5863 5862 5861 5860 5860 5859 5858 5857 5857 5856 5855 5854 5853 5852 5850 5848 5846 5843 5841 5841 5842 5843 5843 5844 5845 5845 5844 5843
5867 5867 5865 5863 5863 5862 5862 5862 5861 5860 5858 5857 5856 5855 5854 5854 5853 5852 5851 5850 5849 5847 5846 5845 5845 5844 5843 5842 5842 5839 5837 5835 5831 5828 5828 5830 5833 5833 5834 5836 5836 5836 5836
5860 5859 5858 5857 5854 5854 5853 5852 5851 5850 5848 5847 5846 5845 5844 5844 5843 5842 5840 5839 5838 5836 5834 5833 5833 5832 5832 5831 5831 5829 5826 5823 5820 5817 5817 5819 5822 5823 5826 5826 5827 5828 5828
5852 5851 5849 5848 5846 5845 5844 5843 5841 5840 5838 5837 5835 5834 5833 5833 5833 5831 5829 5828 5826 5824 5822 5823 5822 5822 5821 5820 5819 5817 5815 5812 5809 5807 5807 5809 5810 5813 5816 5818 5817 5819 5819
5845 5843 5841 5839 5837 5836 5835 5833 5832 5831 5828 5826 5825 5823 5822 5821 5820 5819 5817 5816 5815 5814 5813 5812 5811 5810 5810 5809 5808 5806 5804 5801 5798 5797 5797 5799 5801 5803 5806 5809 5810 5810 5810
5839 5836 5833 5831 5829 5827 5825 5824 5822 5821 5819 5817 5814 5812 5811 5809 5808 5807 5805 5804 5803 5802 5801 5800 5799 5798 5798 5798 5796 5795 5793 5790 5788 5788 5788 5789 5791 5793 5796 5799 5801 5801 5801
5831 5829 5826 5824 5822 5819 5817 5816 5814 5812 5810 5808 5806 5804 5801 5799 5797 5795 5793 5791 5790 5788 5788 5787 5786 5786 5786 5786 5785 5784 5783 5781 5779 5779 5779 5780 5782 5784 5787 5789 5792 5793 5793
5825 5822 5819 5817 5814 5812 5810 5808 5806 5804 5802 5799 5797 5794 5791 5788 5786 5783 5780 5778 5775 5774 5773 5772 5772 5773 5773 5773 5773 5773 5773 5771 5771 5770 5771 5771 5773 5775 5778 5780 5783 5784 5785
5818 5814 5811 5808 5806 5803 5801 5798 5796 5794 5792 5790 5787 5784 5781 5777 5774 5770 5767 5764 5761 5758 5756 5756 5757 5758 5759 5761 5761 5762 5763 5762 5762 5762 5763 5764 5765 5767 5769 5772 5774 5776 5777
5810 5805 5801 5798 5795 5793 5790 5788 5786 5784 5782 5780 5777 5773 5770 5766 5762 5758 5753 5750 5746 5743 5741 5740 5741 5743 5745 5748 5750 5751 5753 5754 5754 5755 5755 5756 5757 5759 5762 5764 5766 5767 5769
5802 5797 5792 5788 5784 5781 5779 5776 5774 5773 5771 5769 5766 5762 5759 5754 5750 5745 5740 5735 5731 5727 5725 5726 5727 5730 5733 5735 5739 5741 5744 5745 5746 5747 5748 5749 5750 5752 5755 5757 5758 5760 5761
5795 5789 5784 5779 5775 5771 5767 5765 5763 5761 5760 5758 5755 5751 5747 5743 5738 5733 5728 5723 5717 5714 5712 5714 5716 5719 5722 5725 5729 5732 5735 5737 5738 5739 5741 5742 5743 5745 5748 5750 5751 5753 5754
5787 5782 5776 5772 5766 5762 5758 5755 5753 5751 5749 5747 5744 5741 5737 5733 5728 5723 5717 5712 5707 5704 5703 5704 5707 5710 5713 5717 5721 5724 5727 5729 5731 5732 5734 5735 5737 5739 5741 5743 5744 5745 5746
5780 5774 5769 5764 5759 5754 5750 5747 5744 5742 5740 5738 5735 5732 5729 5725 5720 5715 5710 5705 5701 5697 5696 5698 5700 5703 5707 5710 5714 5717 5719 5722 5724 5726 5728 5730 5732 5734 5735 5736 5737 5738 5738
5772 5767 5761 5756 5752 5747 5743 5739 5736 5734 5732 5729 5727 5724 5721 5718 5714 5709 5705 5700 5696 5694 5692 5694 5696 5698 5701 5704 5707 5710 5713 5715 5718 5720 5722 5724 5726 5727 5728 5729 5730 5730 5730
5765 5759 5754 5749 5744 5740 5735 5732 5729 5727 5725 5722 5720 5718 5715 5712 5709 5706 5702 5699 5696 5693 5692 5693 5694 5696 5698 5700 5703 5706 5708 5710 5713 5715 5717 5719 5720 5721 5722 5722 5722 5722 5722
5757 5752 5746 5741 5737 5733 5729 5724 5722 5720 5718 5716 5714 5712 5710 5708 5705 5703 5700 5697 5695 5693 5693 5693 5694 5695 5696 5698 5700 5702 5704 5706 5708 5710 5712 5713 5714 5714 5715 5715 5715 5715 5714
5748 5743 5738 5734 5729 5725 5721 5718 5715 5713 5712 5710 5708 5707 5705 5703 5701 5699 5698 5696 5694 5693 5692 5692 5693 5693 5694 5695 5697 5698 5700 5702 5704 5705 5706 5707 5708 5709 5709 5709 5709 5708 5707
5738 5733 5729 5725 5721 5717 5714 5711 5708 5706 5705 5704 5703 5701 5700 5699 5697 5696 5695 5693 5692 5691 5691 5691 5691 5691 5692 5693 5694 5695 5697 5698 5700 5701 5702 5703 5704 5704 5704 5704 5703 5702 5701
5727 5723 5719 5716 5713 5709 5706 5703 5701 5699 5699 5698 5697 5696 5695 5694 5693 5692 5691 5690 5690 5689 5688 5688 5689 5689 5690 5691 5692 5693 5694 5696 5697 5698 5698 5699 5699 5699 5699 5699 5698 5697 5695
5715 5711 5708 5706 5704 5700 5697 5695 5693 5692 5691 5691 5691 5690 5690 5689 5688 5688 5687 5687 5686 5686 5686 5686 5686 5687 5688 5689 5690 5691 5692 5693 5695 5695 5695 5695 5695 5695 5695 5694 5693 5691 5689
5701 5698 5696 5694 5692 5690 5687 5686 5684 5684 5684 5684 5684 5684 5684 5684 5684 5683 5683 5683 5683 5683 5683 5683 5684 5685 5686 5687 5688 5689 5690 5691 5692 5692 5692 5692 5692 5692 5691 5690 5688 5686 5684
5685 5683 5681 5680 5679 5677 5675 5675 5675 5674 5675 5677 5677 5678 5678 5678 5678 5679 5679 5679 5679 5680 5680 5681 5682 5683 5684 5685 5686 5687 5688 5688 5689 5690 5690 5689 5689 5688 5687 5686 5684 5681 5678
5667 5666 5665 5666 5666 5665 5663 5662 5663 5664 5666 5668 5670 5671 5672 5672 5673 5674 5674 5675 5676 5676 5678 5679 5680 5681 5682 5683 5684 5684 5685 5686 5686 5686 5686 5686 5685 5685 5683 5681 5679 5676 5673
5647 5647 5648 5649 5651 5650 5650 5650 5651 5653 5655 5658 5661 5663 5664 5666 5667 5668 5669 5671 5672 5673 5674 5676 5677 5678 5679 5680 5681 5682 5682 5683 5683 5683 5683 5682 5682 5681 5680 5678 5675 5672 5669
5625 5626 5627 5630 5632 5634 5635 5635 5637 5640 5643 5647 5651 5654 5657 5659 5661 5662 5664 5666 5667 5669 5671 5672 5674 5675 5676 5677 5678 5678 5679 5679 5679 5679 5679 5679 5679 5678 5676 5674 5672 5669 5665